Location: Stockholm
(59.3333°N, 18.0500°E)
Time: 02:32:58
(UTC+02:00)

ISS - Pass Details

Date: 13 May 2021
Orbit: 417 x 422 km, 51.6° (Epoch: 16 June)

Event Time Altitude Azimuth Distance (km) Brightness Sun altitude
Exits shadow 23:45:17 10° 122° (ESE) 1,484 -1.4 -11.1°
Drops below altitude 10° 23:45:23 10° 121° (ESE) 1,507 -1.4 -11.1°
Sets 23:48:06 0° 98° (E) 2,375 -0.1 -11.2°
